Regional Weather Roundup
Issued by NWS Kansas City/Pleasant Hill, MO

Home | Current Version | Previous Version | Text Only | Print | Product List | Glossary On
Versions: 1 2 3 4 5 6 7 8 9 10 11 12 13 14 15 16 17 18 19 20 21 22 23 24 25 26 27 28 29 30 31 32 33 34 35 36 37 38 39 40 41 42 43 44 45 46 47 48 49 50
000
ASUS43 KEAX 222011
RWREAX

WEATHER ROUNDUP FOR EASTERN KANSAS AND NORTHWEST MISSOURI
NATIONAL WEATHER SERVICE KANSAS CITY/PLEASANT HILL MO
200 PM CST MON DEC 22 2014

KSZ040-057-103>105-MOZ028-029-037-043-222100-
...KANSAS CITY METROPOLITAN AREA...

CITY           SKY/WX    TMP DP  RH WIND       PRES   REMARKS
K.C. INTL      LGT RAIN  45  45 100 S10       29.44F FOG
K.C. DOWNTOWN  CLOUDY    46  44  93 S6        29.45F
LEES SUMMIT    CLOUDY    45  43  93 S6        29.46F
OLATHE - IXD   CLOUDY    46  45  96 SW10      29.45F FOG
OLATHE - OJC   LGT RAIN  45  45 100 SW7       29.44F FOG
LAWRENCE       CLOUDY    47  44  90 SW8       29.45F

$$

MOZ001>008-011>017-020>025-030>033-038>040-044>046-053-054-222100-
...NORTHERN AND CENTRAL MISSOURI...

CITY           SKY/WX    TMP DP  RH WIND       PRES   REMARKS
ST. JOSEPH     CLOUDY    45  43  93 S9        29.43F FOG
MOSBY          DRIZZLE   43  43 100 SE3       29.45F
WHITEMAN AFB   LGT RAIN  46  45  96 S9        29.47F
CLINTON        CLOUDY    46  46 100 S7        29.48F FOG
SEDALIA        CLOUDY    47  45  93 S8        29.48F FOG
WARSAW         NOT AVBL
MARSHALL       LGT RAIN  46  46 100 SE8       29.51F
CHILLICOTHE      N/A     44  42  93 SE5       29.48F
MOBERLY        RAIN      46  41  81 SE8       29.51F
KIRKSVILLE     LGT RAIN  42  41  96 SE9       29.50F FOG

$$

MOZ041-047>049-056>058-063>065-088>090-097-222100-
...EASTERN AND SOUTHERN MISSOURI...

CITY           SKY/WX    TMP DP  RH WIND       PRES   REMARKS
ST. LOUIS INTL LGT RAIN  49  45  86 SE8       29.59F FOG
SPIRIT OF STL  LGT RAIN  47  45  93 E3        29.57F
COLUMBIA       LGT RAIN  47  46  97 SE10      29.50F FOG
JEFFERSON CITY CLOUDY    49  46  90 SE7       29.52F
MEXICO         CLOUDY   N/A N/A N/A SE9       29.53F HAZE
HANNIBAL       CLOUDY    45  43  93 SE6       29.54F FOG
ROLLA          LGT RAIN  46  44  93 SE9       29.51F
LEBANON        CLOUDY    46  45  93 S8        29.51F
OSAGE BEACH    CLOUDY    48  45  87 S10       29.50F
SPRINGFIELD    CLOUDY    47  45  93 S12       29.49F
BRANSON        CLOUDY    48  46  93 S9        29.52F
NEVADA         CLOUDY    48  46  93 SW6       29.48F FOG
JOPLIN         LGT RAIN  49  48  97 SW9       29.49F FOG
WEST PLAINS    CLOUDY    48  46  93 S8        29.54F

$$

IAZ060-094-KSZ022-034>040-054-083-096-NEZ052-066-093-222100-
...KANSAS...SOUTHEAST NEBRASKA AND IOWA...

CITY           SKY/WX    TMP DP  RH WIND       PRES   REMARKS
TOPEKA         CLOUDY    50  45  83 W9        29.45F
MANHATTAN      CLOUDY    47  41  80 W7        29.48S
EMPORIA        CLOUDY    47  41  80 NW14G22   29.47F
CHANUTE        LGT RAIN  49  46  90 W12       29.48F
WICHITA        PTSUNNY   50  39  66 NW12      29.54S
OMAHA          LGT RAIN  43  42  97 S7        29.42F FOG
LINCOLN        CLOUDY    45  39  79 NW14      29.44F
FALLS CITY     LGT RAIN  46  32  58 SW5       29.41F
LAMONI         LGT RAIN  41  40  96 SE10      29.45F WCI  35
DES MOINES     LGT RAIN  41  38  89 SE8       29.48F FOG

$$




USA.gov is the U.S. government's official web portal to all federal, state and local government web resources and services.